TimeEST,TemperatureF,Dew PointF,Humidity,Sea Level PressureIn,VisibilityMPH,Wind Direction,Wind SpeedMPH,Gust SpeedMPH,PrecipitationIn,Events,Conditions,WindDirDegrees,DateUTC
12:54 AM,25.0,9.0,51,29.91,10.0,NW,9.2,-,N/A,,Clear,310,2013-01-22 05:54:00
1:54 AM,23.0,8.1,53,29.94,10.0,WNW,12.7,24.2,N/A,,Partly Cloudy,300,2013-01-22 06:54:00
2:54 AM,21.9,5.0,48,29.95,10.0,WNW,24.2,31.1,N/A,,Clear,300,2013-01-22 07:54:00
3:54 AM,19.9,1.0,44,29.99,10.0,WNW,20.7,27.6,N/A,,Clear,300,2013-01-22 08:54:00
4:54 AM,19.0,1.0,46,30.01,10.0,WNW,16.1,23.0,N/A,,Clear,290,2013-01-22 09:54:00
5:54 AM,18.0,-0.0,45,30.04,10.0,WNW,15.0,23.0,N/A,,Clear,290,2013-01-22 10:54:00
6:54 AM,17.1,-0.0,47,30.07,10.0,WNW,16.1,26.5,N/A,,Clear,300,2013-01-22 11:54:00
7:54 AM,17.1,-0.0,47,30.10,10.0,WNW,19.6,26.5,N/A,,Clear,290,2013-01-22 12:54:00
8:54 AM,18.0,-0.0,45,30.11,10.0,WNW,18.4,28.8,N/A,,Clear,290,2013-01-22 13:54:00
9:54 AM,19.0,-0.0,43,30.14,10.0,West,19.6,28.8,N/A,,Clear,280,2013-01-22 14:54:00
10:54 AM,19.9,1.0,44,30.14,10.0,NW,18.4,25.3,N/A,,Scattered Clouds,310,2013-01-22 15:54:00
11:54 AM,19.9,-2.0,38,30.13,10.0,WNW,17.3,28.8,N/A,,Scattered Clouds,300,2013-01-22 16:54:00
12:54 PM,21.0,-2.9,35,30.11,10.0,West,19.6,27.6,N/A,,Clear,280,2013-01-22 17:54:00
1:54 PM,21.0,-5.1,32,30.11,10.0,NW,17.3,25.3,N/A,,Clear,310,2013-01-22 18:54:00
2:54 PM,19.9,-5.1,33,30.12,10.0,West,17.3,25.3,N/A,,Clear,280,2013-01-22 19:54:00
3:54 PM,19.0,-5.1,34,30.15,10.0,NW,15.0,25.3,N/A,,Mostly Cloudy,320,2013-01-22 20:54:00
4:54 PM,18.0,-4.0,38,30.17,10.0,NW,15.0,27.6,N/A,,Scattered Clouds,310,2013-01-22 21:54:00
5:54 PM,17.1,-5.1,37,30.20,10.0,WNW,11.5,-,N/A,,Clear,300,2013-01-22 22:54:00
6:54 PM,17.1,-6.0,36,30.22,10.0,WNW,12.7,18.4,N/A,,Clear,300,2013-01-22 23:54:00
7:54 PM,16.0,-5.1,39,30.25,10.0,WNW,13.8,24.2,N/A,,Clear,290,2013-01-23 00:54:00
8:54 PM,15.1,-4.0,43,30.25,10.0,WNW,5.8,-,N/A,,Clear,290,2013-01-23 01:54:00
9:54 PM,15.1,-5.1,41,30.28,10.0,WNW,12.7,18.4,N/A,,Partly Cloudy,300,2013-01-23 02:54:00
10:54 PM,14.0,-5.1,43,30.30,10.0,WNW,12.7,24.2,N/A,,Clear,300,2013-01-23 03:54:00
11:54 PM,12.9,-6.0,43,30.28,10.0,WNW,10.4,18.4,N/A,,Clear,290,2013-01-23 04:54:00